• In Österreich
  • Länderverzeichnis
  • Für 7 Tage
  • Wassertemperatur
  • Satellitenkarten
  • Wetterkarte
  • News
  • Widgets
  • user-avatar
    Anmelden

    Stündliche Wetter Pluzhenicy

    Heute, 20 September, Donnerstag

    Zeit Temperatur Niederschläge Wind Luftdruck Luftfeuchtigkeit
    00:00 +17°C° 0 mm 2 m/S 753 mmHg 94%
    01:00 +16°C° 0 mm 2 m/S 753 mmHg 95%
    02:00 +16°C° 0 mm 2 m/S 753 mmHg 97%
    03:00 +15°C° 0 mm 2 m/S 753 mmHg 97%
    04:00 +15°C° 0 mm 2 m/S 754 mmHg 97%
    05:00 +14°C° 0 mm 2 m/S 754 mmHg 98%
    06:00 +15°C° 0 mm 2 m/S 754 mmHg 94%
    07:00 +15°C° 0 mm 2 m/S 754 mmHg 91%
    08:00 +16°C° 0 mm 2 m/S 755 mmHg 88%
    09:00 +18°C° 0 mm 2 m/S 755 mmHg 79%
    10:00 +20°C° 0 mm 3 m/S 755 mmHg 71%
    11:00 +21°C° 0 mm 3 m/S 755 mmHg 63%
    12:00 +22°C° 0 mm 3 m/S 755 mmHg 60%
    13:00 +24°C° 0 mm 3 m/S 755 mmHg 57%
    14:00 +25°C° 0 mm 3 m/S 755 mmHg 54%
    15:00 +24°C° 0 mm 3 m/S 755 mmHg 60%
    16:00 +23°C° 0 mm 2 m/S 755 mmHg 65%
    17:00 +21°C° 0 mm 2 m/S 755 mmHg 70%
    18:00 +19°C° 0 mm 2 m/S 755 mmHg 75%
    19:00 +18°C° 0 mm 2 m/S 755 mmHg 79%
    20:00 +17°C° 0 mm 2 m/S 755 mmHg 84%
    21:00 +16°C° 0 mm 2 m/S 755 mmHg 85%
    22:00 +16°C° 0 mm 2 m/S 755 mmHg 85%
    23:00 +16°C° 0 mm 2 m/S 755 mmHg 86%

    Morgen, 21 September, Freitag

    Zeit Temperatur Niederschläge Wind Luftdruck Luftfeuchtigkeit
    00:00 +16°C° 0 mm 2 m/S 755 mmHg 89%
    01:00 +16°C° 0 mm 2 m/S 756 mmHg 91%
    02:00 +15°C° 0 mm 2 m/S 756 mmHg 93%
    03:00 +15°C° 0 mm 2 m/S 756 mmHg 94%
    04:00 +15°C° 0 mm 2 m/S 756 mmHg 96%
    05:00 +15°C° 0 mm 2 m/S 756 mmHg 97%
    06:00 +17°C° 0 mm 2 m/S 756 mmHg 93%
    07:00 +18°C° 0 mm 2 m/S 756 mmHg 88%
    08:00 +19°C° 0 mm 3 m/S 756 mmHg 84%
    09:00 +21°C° 0 mm 3 m/S 756 mmHg 78%
    10:00 +22°C° 0 mm 3 m/S 756 mmHg 71%
    11:00 +25°C° 0 mm 4 m/S 756 mmHg 65%
    12:00 +26°C° 0.2 mm 4 m/S 755 mmHg 63%
    13:00 +26°C° 0.2 mm 4 m/S 755 mmHg 62%
    14:00 +27°C° 0.2 mm 4 m/S 755 mmHg 60%
    15:00 +26°C° 0 mm 3 m/S 755 mmHg 64%
    16:00 +25°C° 0 mm 3 m/S 754 mmHg 68%
    17:00 +24°C° 0 mm 3 m/S 754 mmHg 72%
    18:00 +22°C° 0 mm 3 m/S 754 mmHg 75%
    19:00 +21°C° 0 mm 3 m/S 754 mmHg 77%
    20:00 +20°C° 0 mm 4 m/S 754 mmHg 79%
    21:00 +20°C° 0 mm 4 m/S 753 mmHg 79%
    22:00 +19°C° 0 mm 4 m/S 753 mmHg 79%
    23:00 +19°C° 0 mm 4 m/S 753 mmHg 79%

    übermorgen, 22 September, Samstag

    Zeit Temperatur Niederschläge Wind Luftdruck Luftfeuchtigkeit
    00:00 +19°C° 0 mm 4 m/S 752 mmHg 78%
    01:00 +19°C° 0 mm 4 m/S 752 mmHg 77%
    02:00 +19°C° 0 mm 4 m/S 751 mmHg 75%
    03:00 +19°C° 0 mm 5 m/S 751 mmHg 75%
    04:00 +17°C° 0 mm 5 m/S 750 mmHg 74%
    05:00 +17°C° 0 mm 5 m/S 749 mmHg 74%
    06:00 +19°C° 0 mm 5 m/S 749 mmHg 71%
    07:00 +19°C° 0 mm 5 m/S 749 mmHg 68%
    08:00 +19°C° 0 mm 6 m/S 749 mmHg 66%
    09:00 +20°C° 0 mm 6 m/S 749 mmHg 65%
    10:00 +20°C° 0 mm 6 m/S 749 mmHg 65%
    11:00 +21°C° 0 mm 6 m/S 749 mmHg 65%
    12:00 +17°C° 0.6 mm 5 m/S 750 mmHg 73%
    13:00 +14°C° 0.6 mm 4 m/S 750 mmHg 82%
    14:00 +12°C° 0.6 mm 3 m/S 750 mmHg 90%
    15:00 +12°C° 0.5 mm 3 m/S 751 mmHg 91%
    16:00 +12°C° 0.5 mm 3 m/S 751 mmHg 92%
    17:00 +12°C° 0.5 mm 2 m/S 751 mmHg 93%
    18:00 +11°C° 0.6 mm 3 m/S 751 mmHg 92%
    19:00 +11°C° 0.6 mm 3 m/S 751 mmHg 92%
    20:00 +11°C° 0.6 mm 3 m/S 752 mmHg 91%
    21:00 +11°C° 0.3 mm 3 m/S 752 mmHg 91%
    22:00 +11°C° 0.3 mm 3 m/S 752 mmHg 91%
    23:00 +10°C° 0.3 mm 3 m/S 752 mmHg 90%

    23 September, Sonntag

    Zeit Temperatur Niederschläge Wind Luftdruck Luftfeuchtigkeit
    00:00 +10°C° 0 mm 3 m/S 751 mmHg 91%
    01:00 +9°C° 0 mm 3 m/S 751 mmHg 91%
    02:00 +9°C° 0 mm 2 m/S 751 mmHg 92%
    03:00 +9°C° 0 mm 2 m/S 751 mmHg 92%
    04:00 +8°C° 0 mm 2 m/S 750 mmHg 93%
    05:00 +8°C° 0 mm 2 m/S 750 mmHg 94%
    06:00 +9°C° 0 mm 3 m/S 750 mmHg 90%
    07:00 +9°C° 0 mm 3 m/S 750 mmHg 87%
    08:00 +10°C° 0 mm 4 m/S 749 mmHg 84%
    09:00 +11°C° 0 mm 4 m/S 749 mmHg 78%
    10:00 +12°C° 0 mm 4 m/S 749 mmHg 71%
    11:00 +13°C° 0 mm 5 m/S 749 mmHg 64%
    12:00 +14°C° 0.2 mm 5 m/S 748 mmHg 63%
    13:00 +14°C° 0.2 mm 5 m/S 748 mmHg 62%
    14:00 +14°C° 0.2 mm 5 m/S 748 mmHg 60%
    15:00 +13°C° 0.1 mm 4 m/S 748 mmHg 65%
    16:00 +13°C° 0.1 mm 4 m/S 748 mmHg 69%
    17:00 +12°C° 0.1 mm 3 m/S 748 mmHg 73%
    18:00 +11°C° 0 mm 3 m/S 748 mmHg 77%
    19:00 +10°C° 0 mm 3 m/S 748 mmHg 80%
    20:00 +9°C° 0 mm 3 m/S 749 mmHg 83%
    21:00 +9°C° 0 mm 3 m/S 748 mmHg 85%
    22:00 +8°C° 0 mm 3 m/S 748 mmHg 87%
    23:00 +8°C° 0 mm 3 m/S 748 mmHg 88%

    24 September, Montag

    Zeit Temperatur Niederschläge Wind Luftdruck Luftfeuchtigkeit
    00:00 +7°C° 0 mm 3 m/S 748 mmHg 90%
    01:00 +7°C° 0 mm 2 m/S 748 mmHg 92%
    02:00 +7°C° 0 mm 2 m/S 747 mmHg 94%
    03:00 +7°C° 0 mm 2 m/S 747 mmHg 94%
    04:00 +7°C° 0 mm 2 m/S 746 mmHg 95%
    05:00 +7°C° 0 mm 2 m/S 746 mmHg 95%
    06:00 +7°C° 0.2 mm 2 m/S 745 mmHg 94%
    07:00 +8°C° 0.2 mm 2 m/S 745 mmHg 93%
    08:00 +8°C° 0.2 mm 3 m/S 744 mmHg 92%
    09:00 +8°C° 1.3 mm 3 m/S 743 mmHg 91%
    10:00 +7°C° 1.3 mm 4 m/S 742 mmHg 91%
    11:00 +7°C° 1.3 mm 5 m/S 740 mmHg 91%
    12:00 +7°C° 3.4 mm 5 m/S 739 mmHg 92%
    13:00 +7°C° 3.4 mm 5 m/S 737 mmHg 93%
    14:00 +7°C° 3.4 mm 5 m/S 736 mmHg 94%
    15:00 +7°C° 4.4 mm 5 m/S 735 mmHg 94%
    16:00 +7°C° 4.4 mm 5 m/S 734 mmHg 95%
    17:00 +6°C° 4.4 mm 5 m/S 733 mmHg 96%
    18:00 +6°C° 2.4 mm 5 m/S 733 mmHg 95%
    19:00 +6°C° 2.4 mm 5 m/S 733 mmHg 95%
    20:00 +6°C° 2.4 mm 5 m/S 732 mmHg 95%
    21:00 +5°C° 2 mm 6 m/S 733 mmHg 94%
    22:00 +5°C° 2 mm 7 m/S 734 mmHg 93%
    23:00 +5°C° 2 mm 8 m/S 734 mmHg 92%

    25 September, Dienstag

    Zeit Temperatur Niederschläge Wind Luftdruck Luftfeuchtigkeit
    00:00 +5°C° 1.4 mm 8 m/S 735 mmHg 90%
    01:00 +5°C° 1.4 mm 8 m/S 736 mmHg 89%
    02:00 +5°C° 1.4 mm 9 m/S 737 mmHg 87%
    03:00 +5°C° 0.7 mm 8 m/S 738 mmHg 87%
    04:00 +4°C° 0.7 mm 8 m/S 739 mmHg 86%
    05:00 +4°C° 0.7 mm 8 m/S 740 mmHg 85%
    06:00 +4°C° 0.2 mm 8 m/S 741 mmHg 85%
    07:00 +4°C° 0.2 mm 7 m/S 742 mmHg 84%
    08:00 +4°C° 0.2 mm 7 m/S 743 mmHg 84%
    09:00 +5°C° 0.1 mm 7 m/S 744 mmHg 80%
    10:00 +5°C° 0.1 mm 7 m/S 745 mmHg 77%
    11:00 +6°C° 0.1 mm 7 m/S 746 mmHg 73%
    12:00 +6°C° 0.2 mm 7 m/S 747 mmHg 69%
    13:00 +8°C° 0.2 mm 7 m/S 748 mmHg 65%
    14:00 +8°C° 0.2 mm 7 m/S 749 mmHg 61%
    15:00 +8°C° 0 mm 6 m/S 750 mmHg 63%
    16:00 +7°C° 0 mm 5 m/S 750 mmHg 64%
    17:00 +7°C° 0 mm 4 m/S 751 mmHg 66%
    18:00 +6°C° 0 mm 4 m/S 752 mmHg 68%
    19:00 +5°C° 0 mm 4 m/S 752 mmHg 71%
    20:00 +5°C° 0 mm 3 m/S 753 mmHg 74%
    21:00 +5°C° 0 mm 3 m/S 754 mmHg 75%
    22:00 +4°C° 0 mm 3 m/S 754 mmHg 76%
    23:00 +4°C° 0 mm 3 m/S 755 mmHg 78%
    Mehr zeigen